DateTimeUTC,F1_A11,F1_S11,BsB_S11,BsG_S11,BsR_S11,BbsB_S11,BbsG_S11,BbsR_S11,BaB_A11,BaG_A11,BaR_A11,Tu_S11,T_S11,Uu_S11,U_S11,P_S11,T1_A11
2021-05-20T08:00:00Z,00000200,21000000,,,,,,,-000.14,-000.00,0000.31,15.7,23.1,,00.0,0672.3,30.8
2021-05-20T08:01:00Z,00000200,21000000,,,,,,,0000.20,0000.22,0000.13,15.7,23.1,,00.0,0672.3,30.8
2021-05-20T08:02:00Z,00000200,21000000,,,,,,,-000.16,-000.39,-000.06,15.7,23.1,,00.0,0672.3,30.8
2021-05-20T08:03:00Z,00000200,61000000,,,,,,,0000.63,0000.68,0000.41,15.7,23.1,,00.0,0672.3,30.8
2021-05-20T08:04:00Z,00000200,41000000,0002.98,0001.91,0000.94,0000.78,0000.78,0000.02,0000.95,0000.98,0000.62,15.9,22.9,,00.0,0673.1,30.8
2021-05-20T08:05:00Z,00000200,01000000,0002.86,0001.91,0001.23,0000.16,0000.26,0000.14,0001.31,0000.71,0000.67,16.0,22.9,00.0,00.0,0673.2,30.8
2021-05-20T08:06:00Z,00000200,01000000,0003.25,0001.78,0001.28,0000.20,0000.58,0000.25,0000.59,0000.91,0000.52,16.1,22.9,,00.0,0673.2,30.9
2021-05-20T08:07:00Z,00000200,01000000,0003.02,0001.74,0001.19,0000.61,0000.34,0000.35,0000.81,0000.87,0000.90,16.1,22.9,,00.0,0673.2,30.9
2021-05-20T08:08:00Z,00000200,01000000,0002.35,0001.72,0001.25,0000.32,0000.27,0000.30,0000.87,0000.53,0000.17,16.1,22.9,,00.0,0673.2,30.9
2021-05-20T08:09:00Z,00000200,01000000,0003.27,0002.15,0001.06,0000.61,0000.60,0000.07,0000.42,0000.81,0000.90,16.2,22.9,,00.0,0673.2,30.9
2021-05-20T08:10:00Z,00000200,01000000,0002.70,0001.79,0000.92,0000.38,0000.65,0000.36,0000.55,0000.37,0000.16,16.1,22.9,00.0,00.0,0673.3,30.9
2021-05-20T08:11:00Z,00000200,01000000,0003.07,0001.81,0001.53,0000.26,0000.31,0000.35,0001.23,0000.47,0000.46,16.1,22.9,00.0,00.0,0673.3,30.8
2021-05-20T08:12:00Z,00000200,01000000,0002.99,0001.85,0001.21,0000.09,0000.32,0000.13,0000.26,0000.66,0000.61,16.1,22.9,00.0,00.0,0673.3,30.8
2021-05-20T08:13:00Z,00000200,01000000,0003.25,0002.37,0001.18,0000.71,0000.46,0000.46,0001.23,0000.93,0000.53,16.1,22.9,00.0,00.0,0673.3,30.8
2021-05-20T08:14:00Z,00000200,01000000,0002.95,0001.84,0001.36,0000.60,0000.42,0000.65,0000.35,0000.53,0000.33,16.1,22.9,00.0,00.0,0673.2,30.8
2021-05-20T08:15:00Z,00000200,01000000,0003.03,0001.93,0001.33,0000.37,0000.31,0000.27,0001.03,0000.67,0000.65,16.1,22.8,00.0,00.0,0673.3,30.8
2021-05-20T08:16:00Z,00000200,01000000,0002.48,0002.06,0001.07,0000.40,0000.59,0000.18,0000.41,0000.51,0000.01,16.0,22.8,00.0,00.0,0673.3,30.8
2021-05-20T08:17:00Z,00000200,01000000,0003.03,0001.94,0001.31,0000.45,0000.56,0000.25,0001.36,0001.33,0001.17,16.0,22.8,00.0,00.0,0673.3,30.8
2021-05-20T08:18:00Z,00000200,01000000,0002.93,0001.91,0001.20,0000.50,0000.59,0000.32,0000.70,0000.65,0000.66,16.1,22.8,00.0,00.0,0673.2,30.8
2021-05-20T08:19:00Z,00000200,01000000,0002.46,0001.60,0001.04,0000.41,0000.54,0000.11,0000.77,0000.63,0000.72,16.1,22.9,00.0,00.0,0673.2,30.8
2021-05-20T08:20:00Z,00000200,01000000,0002.81,0001.92,0001.06,0000.36,0000.42,0000.12,0000.75,0000.90,0000.23,16.2,22.9,00.0,00.0,0673.2,30.9
2021-05-20T08:21:00Z,00000200,01000000,0003.05,0001.80,0001.23,0000.27,0000.42,0000.40,0000.70,0000.59,0000.66,16.2,22.9,,00.0,0673.2,30.9
2021-05-20T08:22:00Z,00000200,01000000,0003.40,0002.09,0001.20,0000.80,0000.59,0000.33,0001.24,0000.84,0000.30,16.3,23.0,00.0,00.0,0673.2,30.9
2021-05-20T08:23:00Z,00000200,01000000,0002.62,0001.89,0001.21,0000.18,0000.40,0000.36,0000.53,0000.61,0000.59,16.4,23.0,00.0,00.0,0673.3,30.9
2021-05-20T08:24:00Z,00000200,01000000,0002.06,0001.90,0001.25,0000.36,0000.56,0000.45,0000.51,0000.45,0000.16,16.5,23.1,00.0,00.0,0673.3,30.9
2021-05-20T08:25:00Z,00000200,01000000,0002.31,0002.04,0001.00,0000.45,0000.77,0000.36,0000.95,0000.89,0000.87,16.5,23.1,,00.0,0673.3,30.9
2021-05-20T08:26:00Z,00000200,01000000,0003.28,0001.84,0001.12,0000.50,0000.38,0000.33,0000.26,0000.55,0000.09,16.6,23.2,00.0,00.0,0673.3,30.9
2021-05-20T08:27:00Z,00000200,01000000,0002.99,0001.70,0001.30,0000.41,0000.61,0000.35,0001.35,0000.94,0000.92,16.7,23.2,,00.0,0673.3,30.9
2021-05-20T08:28:00Z,00000200,01000000,0003.36,0002.07,0001.15,0000.31,0000.19,0000.49,0000.85,0000.69,0000.53,16.8,23.3,00.0,00.0,0673.3,30.9
2021-05-20T08:29:00Z,00000200,01000000,0002.49,0001.76,0001.45,0000.34,0000.49,0000.12,0000.53,0000.94,0000.52,16.9,23.3,,00.0,0673.3,30.9
2021-05-20T08:30:00Z,00000200,01000000,0002.78,0002.02,0001.37,0000.47,0000.53,0000.37,0000.81,0000.30,0000.44,16.9,23.4,,00.0,0673.3,31.0
2021-05-20T08:31:00Z,00000200,01000000,0003.27,0002.11,0001.17,0000.50,0000.59,0000.66,0000.75,0000.63,0000.29,16.9,23.4,00.0,00.0,0673.3,31.0
2021-05-20T08:32:00Z,00000200,01000000,0002.52,0002.10,0001.35,0000.74,0000.64,0000.45,0000.68,0000.66,0000.64,16.9,23.4,00.0,00.0,0673.3,30.9
2021-05-20T08:33:00Z,00000200,01000000,0003.41,0001.85,0001.30,0000.47,0000.54,0000.23,0000.54,0000.51,0000.48,16.9,23.4,,00.0,0673.3,30.9
2021-05-20T08:34:00Z,00000200,01000000,0002.68,0001.77,0001.23,0000.39,0000.51,0000.31,0000.93,0000.97,0000.63,16.9,23.4,00.0,00.0,0673.3,31.0
2021-05-20T08:35:00Z,00000200,01000000,0002.88,0001.98,0001.25,0000.28,0000.55,0000.25,0000.86,0000.86,0000.29,16.9,23.4,00.0,00.0,0673.3,30.9
2021-05-20T08:36:00Z,00000200,01000000,0002.51,0002.27,0001.56,0000.77,0000.61,0000.49,0000.41,0000.21,0000.54,16.8,23.4,00.0,00.0,0673.3,30.9
2021-05-20T08:37:00Z,00000200,01000000,0002.71,0001.92,0001.42,0000.92,0000.48,0000.26,0001.15,0000.83,0000.61,16.8,23.4,00.0,00.0,0673.3,30.9
2021-05-20T08:38:00Z,00000200,01000000,0002.66,0002.01,0001.25,0000.88,0000.43,0000.32,0000.53,0000.54,0000.49,16.8,23.3,00.0,00.0,0673.3,30.9
2021-05-20T08:39:00Z,00000200,01000000,0002.64,0001.88,0001.32,0000.54,0000.47,0000.29,0000.89,0000.91,0000.63,16.8,23.3,00.0,00.0,0673.3,30.9
2021-05-20T08:40:00Z,00000200,01000000,0002.61,0001.95,0001.02,0000.37,0000.52,0000.38,0000.76,0000.65,0000.16,16.7,23.3,00.0,00.0,0673.3,30.9
2021-05-20T08:41:00Z,00000200,01000000,0002.72,0001.93,0001.02,0000.60,0000.22,0000.32,0000.70,0000.51,0000.90,16.7,23.3,00.0,00.0,0673.3,30.9
2021-05-20T08:42:00Z,00000200,01000000,0002.85,0002.01,0001.19,0000.41,0000.68,0000.46,0001.02,0000.91,0000.31,16.7,23.3,00.0,00.0,0673.2,30.9
2021-05-20T08:43:00Z,00000200,01000000,0003.19,0002.11,0001.41,0000.44,0000.26,0000.21,0000.44,0000.21,0000.04,16.6,23.3,00.0,00.0,0673.2,30.9
2021-05-20T08:44:00Z,00000200,01000000,0003.20,0002.11,0001.40,0000.84,0000.47,0000.32,0000.73,0000.57,0001.12,16.6,23.3,00.0,00.0,0673.3,30.9
2021-05-20T08:45:00Z,00000200,01000000,0003.53,0002.05,0001.32,0000.40,0000.52,0000.44,0000.74,0000.64,0000.23,16.6,23.3,00.0,00.0,0673.3,30.9
2021-05-20T08:46:00Z,00000200,01000000,0002.69,0002.12,0001.33,0000.60,0000.48,0000.41,0000.73,0000.95,0000.41,16.6,23.2,00.0,00.0,0673.3,30.9
2021-05-20T08:47:00Z,00000200,01000000,0003.46,0001.93,0001.16,0000.21,0000.38,0000.07,0001.10,0000.83,0000.58,16.6,23.2,00.0,00.0,0673.2,30.9
2021-05-20T08:48:00Z,00000200,01000000,0002.35,0001.83,0001.46,0000.19,0000.41,0000.38,0000.29,0000.45,0000.62,16.5,23.2,00.0,00.0,0673.2,30.9
2021-05-20T08:49:00Z,00000200,01000000,0002.85,0001.78,0001.22,0000.26,0000.38,0000.05,0001.10,0000.65,0000.33,16.5,23.2,00.0,00.0,0673.2,30.9
2021-05-20T08:50:00Z,00000200,01000000,0002.73,0001.93,0001.34,0000.48,0000.57,0000.56,0000.31,0000.92,0000.25,16.5,23.2,00.0,00.0,0673.2,30.9
2021-05-20T08:51:00Z,00000200,01000000,0002.69,0002.14,0001.08,-000.02,0000.21,0000.23,0001.04,0000.22,0000.59,16.5,23.2,00.0,00.0,0673.2,30.9
2021-05-20T08:52:00Z,00000200,01000000,0002.55,0001.74,0001.37,0000.25,0000.22,0000.26,0000.62,0000.86,0000.64,16.5,23.1,00.0,00.0,0673.2,30.9
2021-05-20T08:53:00Z,00000200,01000000,0003.04,0001.95,0001.22,0000.60,0000.80,0000.39,0000.43,0000.65,0000.38,16.4,23.1,00.0,00.0,0673.2,30.8
2021-05-20T08:54:00Z,00000200,01000000,0002.85,0002.09,0001.25,0000.83,0000.54,0000.30,0000.90,0000.47,0000.51,16.4,23.1,00.0,00.0,0673.2,30.8
2021-05-20T08:55:00Z,00000200,01000000,0003.73,0001.86,0001.11,-000.07,0000.34,0000.36,0000.72,0000.78,0000.40,16.4,23.1,00.0,00.0,0673.2,30.8
2021-05-20T08:56:00Z,00000200,01000000,0002.43,0001.86,0001.66,0000.49,0000.81,0000.42,0000.88,0000.95,0000.97,16.4,23.1,00.0,00.0,0673.2,30.8
2021-05-20T08:57:00Z,00000200,41000000,,,,,,,0000.37,-000.38,-000.18,16.5,23.1,,00.0,0673.2,30.8
2021-05-20T08:58:00Z,00000200,61000000,,,,,,,-000.28,0000.21,0000.16,16.1,23.3,00.0,00.0,0672.2,30.8
2021-05-20T08:59:00Z,00000200,21000000,,,,,,,-000.07,0000.48,0000.07,16.1,23.4,,00.0,0672.1,30.8
